Location: Bad Niederbronn
(48.9513°N, 7.6426°E)
Time: 12:32:41
(UTC+00:00)

Daily predictions for brighter satellites

Satellite Brightness Start Highest point End
(mag) Time Altitude Azimuth Time Altitude Azimuth Time Altitude Azimuth
BREEZE-M DEB (TANK) 4.1 15:58:08 10° WSW 16:01:55 85° SSE 16:14:45 10° ENE
PSLV R/B 3.9 16:05:38 10° SSE 16:09:42 70° ENE 16:13:45 10° N
CZ-4B R/B 3.4 16:05:12 10° SE 16:10:13 45° ENE 16:15:14 10° N
CZ-4B R/B 4.0 16:06:43 10° S 16:10:53 53° W 16:15:15 10° NNW
Meteor PRIRODA 4.5 16:08:05 10° S 16:11:42 56° W 16:15:23 10° NNW
H-2A R/B 2.5 16:08:51 10° SSE 16:12:59 58° ENE 16:16:59 10° N
Cosmos 2369 Rocket 2.8 16:09:06 10° NNW 16:14:20 35° NE 16:19:29 10° ESE
MOS 1-B 4.4 16:09:41 10° SSE 16:15:28 76° ENE 16:21:18 10° NNW
Cosmos 1943 Rocket 2.3 16:10:40 10° NNW 16:16:06 51° NE 16:21:31 10° SE
ADEOS Rocket 3.7 16:09:06 10° NNE 16:16:55 75° ESE 16:24:36 10° S
Cosmos 2221 4.0 16:15:40 10° SW 16:19:43 38° WNW 16:23:46 10° N
NOAA 12 4.3 16:14:43 10° SE 16:19:50 50° ENE 16:24:57 10° N
H-2A R/B 2.5 16:17:12 10° NNE 16:21:12 40° E 16:25:16 10° S
Cosmos 1980 4.4 16:20:28 10° SW 16:26:03 56° NW 16:31:40 10° NNE
NOAA 6 4.1 16:21:22 10° SSE 16:26:32 88° ENE 16:31:42 10° NNW
Okean O Rocket 1.8 16:22:24 10° SE 16:26:35 47° ENE 16:30:49 10° N
Cosmos 1782 4.0 16:24:16 10° SE 16:27:20 22° E 16:30:25 10° NE
Okean-O 4.3 16:26:16 10° E 16:28:35 14° ENE 16:30:53 10° NNE
CRYOSAT 2 4.4 16:23:45 10° N 16:28:37 62° E 16:33:28 10° S
Cosmos 1633 Rocket 3.1 16:25:36 10° N 16:29:55 55° ENE 16:34:11 10° SSE
ISS -3.4 16:26:49 10° W 16:30:07 51° N 16:32:58 13° ENE
H-2A R/B 3.5 16:27:16 10° S 16:31:04 59° W 16:34:56 10° NNW
Cosmos 1933 3.5 16:28:56 10° S 16:32:51 50° E 16:36:49 10° NNE
Cosmos 2218 Rocket 4.0 16:30:14 10° N 16:36:18 57° ENE 16:42:20 10° SSE
Cosmos 2366 rocket 4.0 16:31:11 10° N 16:37:16 56° ENE 16:43:17 10° SSE
Meteor 1-25 Rocket 4.2 16:32:30 10° N 16:38:08 69° ENE 16:43:49 10° SSE
ERS-2 3.6 16:36:10 13° NE 16:38:10 19° E 16:40:52 10° SE
Cosmos 1867 3.8 16:33:52 10° SW 16:39:18 74° NW 16:44:48 10° NE
Envisat 3.4 16:37:45 10° S 16:42:49 68° WSW 16:47:54 10° NNW
Lacrosse 5 rocket 1.0 16:44:01 10° WSW 16:47:40 77° NNW 16:50:15 18° NE
Cosmos 773 Rocket 4.1 16:43:55 10° S 16:49:06 62° ESE 16:54:22 10° NNE
YAOGAN 6 3.3 16:48:19 10° S 16:51:53 57° W 16:55:26 10° NNW
Cosmos 2297 4.5 16:48:16 10° NW 16:53:51 57° WSW 16:59:25 10° S
Cosmos 1606 3.6 16:50:48 10° SSW 16:54:36 52° WNW 16:58:24 10° N
AQUARIUS 4.2 16:52:30 10° SSE 16:57:00 89° WSW 17:01:32 10° NNW
FengYun 1-2 T 4.1 16:51:32 10° SSE 16:57:01 72° ENE 17:02:31 10° N
Feng Yun 1-1 Rocket 4.4 16:51:40 10° SE 16:57:12 52° ENE 17:02:35 10° N
CZ-4B R/B 1.9 16:56:26 22° NE 16:57:48 33° E 17:00:42 10° SSE
Landsat 5 4.0 16:54:28 10° N 16:58:53 66° WNW 17:03:21 10° SSW
SL-16 R/B 2.3 16:53:29 10° SSW 16:59:09 82° WNW 17:04:51 10° NNE
BREEZE-M DEB (TANK) 2.3 17:00:38 10° SW 17:02:55 40° SSE 17:03:26 32° ESE
USA 215 4.3 16:59:21 17° E 17:02:56 26° SE 17:08:15 10° S
Cosmos 1500 3.8 17:01:58 10° N 17:05:28 33° ENE 17:08:57 10° SE
SMAP 3.5 17:01:26 10° S 17:06:03 66° WSW 17:10:42 10° NNW
YAOGAN 1 3.5 17:09:18 25° ENE 17:09:50 26° ENE 17:13:25 10° N
CZ-4C R/B 4.5 17:06:30 10° N 17:09:54 39° WNW 17:13:17 10° SW
Cosmos 1656 Rocket 3.9 17:04:31 10° NNW 17:10:01 48° NE 17:15:24 10° SE
Cosmos 1470 Rocket 3.4 17:08:06 10° N 17:12:27 85° ENE 17:16:46 10° S
Cosmos 1151 Rocket 3.1 17:08:43 10° SSW 17:12:59 78° W 17:17:16 10° N
CSL-04 DEB 4.5 17:10:25 10° NNE 17:14:35 84° WNW 17:18:50 10° SSW
Cosmos 2263 4.1 17:13:18 10° NNW 17:18:56 69° ENE 17:24:30 10° SE
Cosmos 1515 Rocket 3.5 17:16:38 10° S 17:20:59 67° E 17:25:08 11° NNE
CZ-2C R/B 3.2 17:17:12 10° SE 17:21:49 41° ENE 17:26:18 10° N
Cosmos 1238 Rocket 3.4 17:20:51 10° N 17:24:34 38° ENE 17:29:00 10° SE
TIMED 4.5 17:20:13 10° SSW 17:24:34 86° WNW 17:27:38 20° NNE
COSMO-SKYMED 1 2.7 17:23:06 24° NE 17:25:27 50° E 17:29:40 10° S
TELKOM 3 3.3 17:23:54 10° W 17:26:18 63° NW 17:26:18 63° NW
USA 281 3.3 17:22:26 10° SE 17:28:45 53° NE 17:35:07 10° NNW
SAR-Lupe-4 3.9 17:29:14 43° ESE 17:29:14 43° ESE 17:32:29 10° S
X-37B 1.7 17:26:10 10° SW 17:29:04 33° SSE 17:29:28 32° SSE
YAOGAN 3 4.5 17:25:36 10° SSE 17:29:58 86° ENE 17:34:22 10° NNW
Nadezhda 3 Rocket 4.2 17:24:20 10° SSE 17:30:26 51° E 17:36:33 10° NNE
Helios 1A Rocket 3.1 17:33:25 44° ENE 17:33:25 44° ENE 17:37:07 10° N
Meteor 2-6 Rocket 4.2 17:28:03 10° S 17:33:26 52° E 17:37:14 19° NNE
Cosmos 2228 Rocket 3.3 17:29:17 10° SSE 17:33:36 45° E 17:34:29 40° ENE
Meteor 1-4 Rocket 3.0 17:31:25 10° SSW 17:34:57 59° WNW 17:37:26 18° N
H-2A R/B 2.4 17:35:18 33° ESE 17:36:41 39° ENE 17:41:25 10° N
Cosmos 1821 Rocket 3.9 17:30:58 10° N 17:37:12 68° ENE 17:43:30 10° SSE
Cosmos 1812 3.3 17:33:44 10° SSE 17:36:35 39° SE 17:36:35 39° SE
USA 267 3.4 17:34:11 29° E 17:37:34 60° NNE 17:43:59 10° NW
Cosmos 1939 Rocket 2.9 17:35:22 10° S 17:39:14 76° WSW 17:43:12 10° NNW
Meteor 1-11 Rocket 3.9 17:34:41 10° N 17:40:16 48° ENE 17:45:57 10° SE
CZ-4 R/B 4.3 17:36:54 10° SSE 17:41:01 79° ENE 17:45:11 10° N
NOSS 3-3 (A) 4.4 17:33:41 10° NW 17:41:03 73° NE 17:47:58 16° SE
NOSS 3-3 (C) 4.4 17:33:45 10° NW 17:41:08 73° NE 17:47:58 16° SE
CZ-4 R/B 1.3 17:41:26 56° ENE 17:41:27 56° ENE 17:45:28 10° N
PSLV R/B 4.2 17:42:20 45° SE 17:42:20 45° SE 17:45:45 10° S
Cosmos 1933 Rocket 3.8 17:38:02 10° NNW 17:42:31 70° W 17:46:56 10° S
Cosmos 44 Rocket 3.3 17:37:26 10° NW 17:42:37 73° NE 17:45:08 31° SE
BREEZE-M DEB (TANK) 4.1 17:41:07 10° SSW 17:42:53 15° SSE 17:42:53 15° SSE
CSL-04 Rocket 3.9 17:44:04 40° ENE 17:44:11 40° ENE 17:49:06 10° N
IRS-1C Rocket 4.1 17:40:18 10° SSE 17:45:35 87° WSW 17:50:55 10° NNW
SAR-Lupe-1 4.3 17:46:35 56° SSE 17:46:35 56° SSE 17:49:37 10° S
SKYMED 3 4.4 17:47:24 30° NNE 17:49:32 86° ESE 17:53:52 10° SSW
SL-24 R/B 3.5 17:49:33 77° E 17:49:38 78° ESE 17:53:17 10° S
Lacrosse 4 Rocket 3.8 17:46:50 10° SSE 17:46:59 11° SSE 17:46:59 11° SSE
Cosmos 1680 Rocket 3.8 17:45:31 10° S 17:50:19 43° ESE 17:50:19 43° ESE
Cosmos 2237 Rocket 4.3 17:47:00 10° W 17:51:02 20° NW 17:55:06 10° N
Cosmos 1603 3.5 17:49:05 10° SSW 17:54:42 80° ESE 17:56:56 38° NE
CZ-2D R/B 3.4 17:52:17 10° S 17:56:06 70° WSW 17:59:58 10° NNW
H-2A R/B 4.2 17:53:36 10° N 17:56:59 24° WNW 18:00:26 10° WSW
Cosmos 1943 3.1 17:52:26 10° SSW 17:58:04 75° ESE 17:59:58 43° NE
Cosmos 2369 Rocket 3.1 17:53:06 10° NW 17:58:33 48° WSW 18:03:56 10° S
Cosmos 1943 Rocket 4.1 17:54:50 10° NW 17:59:36 30° WSW 18:04:22 10° SSW
Cosmos 1538 Rocket 4.5 17:54:55 10° SW 18:00:14 61° WNW 18:03:44 22° NNE
Meteor 1-5 Rocket 4.3 17:54:48 10° NNW 18:00:44 80° W 18:06:29 10° S
Okean O Rocket 4.2 17:59:53 10° SW 18:03:11 21° W 18:06:32 10° NW
Cosmos 1782 4.4 17:59:48 10° SW 18:03:27 34° WNW 18:06:45 12° N
Cosmos 1371 Rocket 3.9 17:58:42 10° NNW 18:03:40 60° NE 18:03:40 60° NE
Okean-O 2.6 18:00:00 10° SSE 18:04:26 85° WSW 18:08:54 10° NNW
ARGOS 3.7 18:08:32 42° NNE 18:08:32 42° NNE 18:12:24 10° N
ISS -2.3 18:03:47 10° WNW 18:05:55 36° WNW 18:05:55 36° WNW
CENTAUR R/B 2.9 18:02:42 10° S 18:07:45 42° SE 18:07:45 42° SE
Cosmos 2056 Rocket 3.6 18:04:53 10° NNW 18:09:28 56° NNE 18:09:28 56° NNE
Cosmos 2112 Rocket 4.4 18:05:53 10° S 18:09:54 46° SSE 18:09:54 46° SSE
ERS-2 3.5 18:10:46 29° NNW 18:11:51 37° WNW 18:15:14 10° SW
SKYMED 2 4.2 18:11:44 31° N 18:13:33 55° WNW 18:17:47 10° SSW
NOSS 3-2 (C) 3.9 18:10:57 10° S 18:15:09 41° SSE 18:15:09 41° SSE
Cosmos 1869 Rocket 3.7 18:12:46 10° NNW 18:17:15 73° W 18:17:49 64° SSW
BREEZE-M DEB (TANK) 3.9 18:13:58 10° SW 18:19:59 44° S 18:19:59 44° S
Meteor 1-27 Rocket 4.3 18:16:39 10° S 18:20:11 40° SSE 18:20:11 40° SSE
Meteor 1-10 Rocket 4.3 18:20:59 10° SSW 18:26:37 75° WNW 18:28:49 38° N
Cosmos 1624 Rocket 4.2 18:21:33 10° NNW 18:25:55 60° N 18:25:55 60° N
Lacrosse 5 rocket 3.3 18:24:07 10° WNW 18:25:53 21° NW 18:25:53 21° NW
Cosmos 371 Rocket 3.8 18:24:16 10° NNW 18:28:01 53° NNW 18:28:01 53° NNW
CZ-4B R/B 4.1 18:29:34 16° WNW 18:29:49 16° WNW 18:31:47 10° WSW
NOSS 3-2 (A) 3.3 18:35:47 10° SW 18:41:26 85° WNW 18:41:26 85° WNW
SL-16 R/B 4.3 18:40:04 10° W 18:44:11 20° NW 18:46:57 15° N
YAOGAN 1 4.0 18:46:28 36° WNW 18:46:28 36° WNW 18:49:51 10° NNW
USA 215 3.1 18:46:42 79° SSE 18:46:42 79° SSE 18:53:10 10° SW
MOS 1 Rocket 4.2 18:52:44 53° NW 18:53:10 54° WNW 18:58:24 10° SSW
USA 238 DEB 3.7 18:54:19 10° SW 19:00:35 75° W 19:00:35 75° W
USA 238 3.7 18:54:24 10° SW 19:00:39 75° W 19:00:39 75° W
USA 281 4.4 19:07:24 10° S 19:13:26 38° WSW 19:19:31 10° NW
H-2A R/B 3.6 19:15:55 33° WSW 19:16:10 33° W 19:20:48 10° NNW
CZ-4 R/B 4.3 19:17:28 15° W 19:17:28 15° W 19:19:18 10° NW
USA 267 3.7 19:21:32 58° W 19:21:32 58° W 19:27:06 10° WNW
CENTAUR R/B 4.3 19:52:41 10° WSW 19:54:58 24° WSW 19:54:58 24° WSW
